Regional Weather Roundup
Issued by NWS Upton, NY

Current Version | Previous Version | Text Only | Print | Product List | Glossary On
Versions: 1 2 3 4 5 6 7 8 9 10 11 12 13 14 15 16 17 18 19 20 21 22 23 24 25 26 27 28 29 30 31 32 33 34 35 36 37 38 39 40 41 42 43 44 45 46 47 48 49 50
000
ASUS41 KOKX 011218
RWROKX

REGIONAL WEATHER ROUNDUP
NATIONAL WEATHER SERVICE NEW YORK NY
800 AM EDT WED JUL 01 2015

NOTE: "FAIR" INDICATES FEW OR NO CLOUDS BELOW 12,000 FEET WITH NO
SIGNIFICANT WEATHER AND/OR OBSTRUCTIONS TO VISIBILITY.

NYZ071-072-176-178-NJZ106-104-011300-
NEW YORK CITY METRO AREA


CITY           SKY/WX    TMP DP  RH WIND       PRES   REMARKS
CENTRAL PARK   CLOUDY    70  66  87 VRB5      29.81R FOG
LAGUARDIA APRT CLOUDY    72  66  81 SW10      29.77S
KENNEDY INTL   CLOUDY    72  66  81 SW12      29.79R
NEWARK/LIBERTY CLOUDY    71  67  87 SW9       29.78F
BRNX BOT. GARD   N/A     70  64  83 W6        29.80R
TETERBORO      CLOUDY    71  66  84 SW12      29.77S
$$

NYZ177-179-078>081-011300-
LONG ISLAND NEW YORK

CITY           SKY/WX    TMP DP  RH WIND       PRES   REMARKS
FARMINGDALE    CLOUDY    71  68  90 SW8       29.79R
ISLIP          CLOUDY    71  68  90 SW8       29.77R
SHIRLEY        CLOUDY    70  67  90 S8        29.78R
WESTHAMPTON    CLOUDY    70  69  97 CALM      29.77F
MONTAUK POINT    N/A     68  66  93 S8        29.80F
$$

NYZ052-065-067-011300-
HUDSON VALLEY

CITY           SKY/WX    TMP DP  RH WIND       PRES   REMARKS
WHITE PLAINS   CLOUDY    68  66  93 CALM      29.78R
NEWBURGH       PTSUNNY   66  66 100 CALM      29.77S
MONTGOMERY     CLOUDY    67  66  97 SW3       29.76R
POUGHKEEPSIE   CLOUDY    68  65  90 SW3       29.75S
ALBANY         LGT RAIN  68  65  90 S6        29.72F
$$

NJZ001-105-106-008-010-013-015-019>022-104-011300-
NEW JERSEY

CITY           SKY/WX    TMP DP  RH WIND       PRES   REMARKS
NEWARK/LIBERTY CLOUDY    71  67  87 SW9       29.78F
TETERBORO      CLOUDY    71  66  84 SW12      29.77S
CALDWELL       CLOUDY    69  65  86 VRB6      29.79R
MORRISTOWN     CLOUDY    72  70  94 SW7       29.80R
SOMERVILLE     CLOUDY    68  66  93 S5        29.78R FOG
SUSSEX         CLOUDY    68  65  90 SW5       29.78R
ANDOVER          N/A     67  65  93 SW5       29.79R
TRENTON        CLOUDY    69  66  90 SW7       29.80R
MILLVILLE      SUNNY     70  66  87 SW5       29.85R
ATLANTIC CITY  SUNNY     72  64  76 SW9       29.84R
WRIGHTSTOWN    PTSUNNY   69  69  99 SW10      29.80R
TOMS RIVER     PTSUNNY   70  66  88 SW7       29.83R
BELMAR         CLOUDY    70  64  83 SW7       29.82R
$$

PAZ047>061-062-071-011300-
EASTERN PENNSYLVANIA

CITY           SKY/WX    TMP DP  RH WIND       PRES   REMARKS
PHILADELPHIA   PTSUNNY   71  66  84 SW9       29.82R
ALLENTOWN      MOSUNNY   68  65  90 W7        29.80R FOG
SCRANTON       MOSUNNY   67  62  84 SW12      29.80R
$$

CTZ002-004>006-009-010-012-RIZ004-006-007-MAZ004-011-015-011300-
SOUTHERN NEW ENGLAND
 IN CT

CITY           SKY/WX    TMP DP  RH WIND       PRES   REMARKS
BRADLEY INTL   CLOUDY    65  63  93 NE6       29.77F
HARTFORD       CLOUDY    71  68  90 VRB5      29.76F
DANBURY        CLOUDY    68  50  53 CALM      29.79R
WTRBRY/OXFORD  PTSUNNY   70  63  78 N6        29.79S
BRIDGEPORT     CLOUDY    71  70  96 CALM      29.76R
MERIDEN        CLOUDY    71  68  90 NW3       29.75F
NEW HAVEN      CLOUDY    71  69  93 S3        29.76R
CHESTER        CLOUDY    70  70 100 SE3       29.78S FOG
GROTON         CLOUDY    68  65  90 SE10      29.78F
WILLIMANTIC    CLOUDY    69  66  90 SE6       29.78F

 IN RI

CITY           SKY/WX    TMP DP  RH WIND       PRES   REMARKS
PROVIDENCE     TSTM      67  65  93 SE10      29.83F VSB 1
BLOCK ISLAND   CLOUDY    66  63  88 SW5G16    29.81F THUNDER
WESTERLY       LGT RAIN  66  64  93 SE10      29.80F FOG

 IN MA

CITY           SKY/WX    TMP DP  RH WIND       PRES   REMARKS
BOSTON         HVY RAIN  65  63  93 SE10      29.86S FOG
WORCESTER      HVY RAIN  65  63  93 SE10      29.85S FOG
WESTFIELD      CLOUDY    65  63  93 E3        29.78F
PROVINCETOWN   CLOUDY    66  10  11 SE10G20   29.88F
NANTUCKET      FOG       63  62  97 SE14      29.87F VSB 1
$$

ANZ330-335-338-340-345-350-353-355-011300-
COASTAL MARINE OBSERVATIONS


STATION/POSITION TIME  SKY/WX   TEMP    WIND        PRES    VSBY  WAVE
                                AIR SEA DIR/SP/G                  HT/PER
                 (UTC)          (F)     (DEG/KT/KT) (MB)    (MI)  (FT/S)
NY HARB ENTRANCE 1150            69 68  220/  8/ 10 1008.3          3/ 8
4S FIRE IS       1103               67                N/A           4/ 8
20S FIRE ISLAND  1150            67 66  210/  8/ 10 1008.7          4/ 5
GREAT SOUTH BAY  1100            71 74  240/  8/ 10   N/A
23SW MTP         1150            68 65  210/ 12/ 16 1008.7          3/ 8
HUDSON CANYON    NOT AVBL
KINGS POINT      1100            69 67  250/  4/  5 1007.3
CENTRAL LI SOUND NOT AVBL
EASTERN LI SOUND 1100            68     200/ 16/ 25   N/A
ROBBINS REEF     1100            69     190/ 10/ 12 1007.6
$$


>>>>>>>>>>>>>>>>>>>>>>>>>>>> KEY <<<<<<<<<<<<<<<<<<<<<<<<<<<
>                                                          <
>     SKY/WX - SKY CONDITION/PRESENT WEATHER               <
>     TMP    - TEMPERATURE IN FAHRENHEIT                   <
>     DP     - DEWPOINT IN FAHRENHEIT                      <
>     RH     - RELATIVE HUMIDITY IN PERCENT                <
>     WIND   - DIRECTION AND SPEED IN MPH                  <
>     PRES   - MEAN SEA LEVEL PRESSURE IN INCHES OF HG     <
>     WCI    - WIND CHILL INDEX                            <
>     VSB    - VISIBILITY IN MILES                         <
>     HX     - HEAT INDEX                                  <
>     TC     - TEMPERATURE IN CELSIUS                      <
>     VRB    - VARIABLE WIND DIRECTION                     <
>                                                          <
>>>>>>>>>>>>>>>>>>>>>>>>>>>> KEY <<<<<<<<<<<<<<<<<<<<<<<<<<<




USA.gov is the U.S. government's official web portal to all federal, state and local government web resources and services.